Regional Weather Roundup
Issued by NWS

Home | Current Version | Previous Version | Text Only | Print | Product List | Glossary Off
Versions: 1 2 3 4 5 6 7 8 9 10 11 12 13 14 15 16 17 18 19 20 21 22 23 24 25 26 27 28 29 30 31 32 33 34 35 36 37 38 39 40 41 42 43 44 45 46 47 48 49 50

000
ASUS43 KIND 191400
RWRIN

WEATHER ROUNDUP FOR INDIANA
NATIONAL WEATHER SERVICE INDIANAPOLIS IN
1000 AM EDT SAT AUG 19 2017

NOTE: "FAIR" INDICATES FEW OR NO CLOUDS BELOW 12,000 FEET WITH NO
SIGNIFICANT WEATHER AND/OR OBSTRUCTIONS TO VISIBILITY.

* - STATION DOES NOT REPORT WEATHER SUCH AS PRECIPITATION OR FOG.

+ - STATION NOT QUALITY CONTROLLED BY THE NATIONAL WEATHER SERVICE.
    USE DATA WITH CAUTION...ESPECIALLY DEWPOINT AND RELATIVE
    HUMIDITY OBSERVATIONS.

INZ001>003-010>013-019-020-191500-
NORTHWEST INDIANA

CITY           SKY/WX    TMP DP  RH WIND       PRES   REMARKS
GARY /AIRPORT/ MOSUNNY   72  63  73 N5        29.97R
MICHIGAN CITY+ PTSUNNY   70  63  78 NW5       29.97R
MONTICELLO +   MOSUNNY   70  66  88 N5        29.95S

$$

LMZ046-743>745-191500-
SOUTHERN LAKE MICHIGAN

STATION/POSITION TIME  TEMP    WIND        PRES    WAVE
                       AIR SEA DIR/SP/G            HT
                 (UTC) (F)     (DEG/KT/KT) (MB)    (FT)
BURNS HARBOR     1340   70     340/  5/  7 1015.2R
MICHIGAN CITY    1330   71     330/  6/  7   N/A
5NW MICH CITY    1350   71 74  340/  6/ 10   N/A     2

$$

INZ004-005-014>016-021>024-191500-
NORTH CENTRAL INDIANA

CITY           SKY/WX    TMP DP  RH WIND       PRES   REMARKS
ELKHART        SUNNY     72  61  68 NW7       29.95R
GOSHEN         MOSUNNY   70  63  78 NW9       29.95R
PERU/GRISSOM   SUNNY     71  66  82 N6        29.95R
SOUTH BEND     SUNNY     71  64  78 NW8       29.96R

$$

INZ006>009-017-018-025>027-191500-
NORTHEAST INDIANA

CITY           SKY/WX    TMP DP  RH WIND       PRES   REMARKS
FORT WAYNE     MOSUNNY   71  65  81 NW8       29.94R
KENDALLVILLE + PTSUNNY   68  66  95 NW3       29.95R

$$

INZ028-029-035-036-043>045-051>053-191500-
WEST CENTRAL INDIANA

CITY           SKY/WX    TMP DP  RH WIND       PRES   REMARKS
LAFAYETTE      MOSUNNY   73  66  78 N5        29.96R
TERRE HAUTE    SUNNY     75  67  76 NW6       29.95R

$$

INZ030>032-037>040-046>048-054>057-064-065-191500-
CENTRAL INDIANA

CITY           SKY/WX    TMP DP  RH WIND       PRES   REMARKS
COLUMBUS       SUNNY     75  64  69 SW7       29.95R
GREENWOOD *+   SUNNY     74  65  73 SW3       29.96R
INDIANAPOLIS   NOT AVBL
-EAGLE CREEK   SUNNY     75  65  70 CALM      29.94R
KOKOMO +       SUNNY     73  66  78 N7        29.96R
MT COMFORT *+  SUNNY     72  66  83 CALM      29.96R
SHELBYVILLE    MOSUNNY   76  66  71 SW6       29.95R

$$

INZ033-034-041-042-049-050-058-059-191500-
EAST CENTRAL INDIANA

CITY           SKY/WX    TMP DP  RH WIND       PRES   REMARKS
MUNCIE         SUNNY     76  65  68 NW6       29.94S
RICHMOND +     CLOUDY    68  64  88 W6        29.97R

$$

INZ060-061-067>069-081>083-085>088-191500-
SOUTHWEST INDIANA

CITY           SKY/WX    TMP DP  RH WIND       PRES   REMARKS
EVANSVILLE     LGT RAIN  71  68  90 SW7       30.00R FOG
HUNTINGBURG +  PTSUNNY   74  69  85 MISG      29.98R

$$

INZ062-063-066-070>080-084-089>092-191500-
SOUTH CENTRAL AND SOUTHEAST INDIANA

CITY           SKY/WX    TMP DP  RH WIND       PRES   REMARKS
BLOOMINGTON    SUNNY     76  66  71 SW8       29.95S
MADISON *+     MOSUNNY   75  66  73 S7        29.99S
SEYMOUR +      PTSUNNY   77  66  69 S7        29.95S

$$





USA.gov is the U.S. government's official web portal to all federal, state and local government web resources and services.